COSMOS 970 DEB

Satellite information

Favourite Embed

Satellite Type and Status

DEBRISIN ORBIT

Key statistics

Satellite COSMOS 970 DEB at a glance.

Uptime

17478

Days in orbit

Revolutions

≈ 13.9

Per day

Orbit

LEO

Low Earth Orbit

Inclination

65.8

Latest

Satellite identification and parameters

Extended collection of information and parameters for COSMOS 970 DEB.

Object identification

Identified? True

Debris? True

Object name: COSMOS 970 DEB

International designator: 1977-121E

Object number (NORAD): 10563

Object ID (CCSDS): 10563

Country: COMMONWEALTH OF INDEPENDENT STATES (CIS)

Current information (Y/N): Y

RCS size: SMALL

Orbital parameters

Period: 103.436 minutes

Inclination: 65.8458 deg

SMA: 7299.167 km

Apoapsis: 986.941 km

Periapsis: 855.124 km

RAAN: 229.9895 deg

Eccentricy: 0.00902957

Argument of periapsis: 54.7677 deg

Mean anomaly: 306.1804 deg

Mean motion: 13.92171691 rev/day

Mean motion (dot): 0.00001879 rev/day2

B* drag term: 0.0014802872 1/REarth

Two-line elements (TLE)

Creation date: Oct. 27, 2025, 2:46 a.m.

Reference frame: TEME

Reference center: EARTH

Epoch: Oct. 26, 2025, 10:49 p.m. UTC

TLE line 0: 0 COSMOS 970 DEB

TLE line 1: 1 10563U 77121E 25299.95107956 .00001879 00000-0 14803-2 0 9995

TLE line 2: 2 10563 65.8458 229.9895 0090296 54.7677 306.1804 13.92171691404818

Live tracking on map

Real-time ground track for satellite COSMOS 970 DEB.

In-orbit conjunctions

A list of the most updated potential collisions computed for object COSMOS 970 DEB.

Target Orbit TCA Probability of collision Miss distance Type
SL-8 R/B LEO 2025-04-29 10:58:41 0.0002748604 283.0 (m) ROCKET BODY

Associated space launch

Second generation ASAT satellite

COSMOS 970 DEB was lifted into orbit during the mission ‘Tsiklon-2 | IS-A 8’, on board a Tsiklon-2 space rocket.

The launch took place on Dec. 21, 1977, 10:35 a.m. from 90.

For more information about the launch, click the button.

Launch to space Tsiklon-2 | IS-A 8
Tsiklon-2 | IS-A 8

Agency: N/A

Status: Launch Successful

Launch date: Dec. 21, 1977, 10:35 a.m. UTC

Rocket: Tsiklon-2

Launch pad: 90

Location: Baikonur Cosmodrome, Republic of Kazakhstan

...

Latest news about this satellite

There are no fresh news available about this satellite. Check back as we update our databases every day.


Newsletter sign-up

Weekly statistics, charts and insights to help you stay on top of the space industry.